Date String (YYYY-MM-DD hh:mm:ss) UTC,Instrument flags,Ambient pressure (hPa),Sample flow (lpm),Bypass flow (lpm),Sample temperature (°C),Ambient temperature (°C),ASC tube jacket temperature (°C),LED temperature (°C),Box temperature (°C),Sample RH (%),Span deviation,Mass concentration (μg/m³),Mass concentration (μg/m³),Mass concentration (μg/m³)
DateTimeUTC,F1_M11,P_M11,Q1_M11,Q2_M11,T1_M11,T2_M11,T3_M11,T4_M11,T5_M11,U1_M11,ZSPAN_M11,X2_M11,X0_M11,X1_M11
2021-11-30 15:00:00,,0833.1,4.99,0.00,25.1,24.4,00.0,34.2,26.8,12.8,0000.0,0003.89,0024.79,0001.63
2021-11-30 15:01:00,,0833.1,5.01,0.00,25.1,24.4,00.0,34.2,26.9,12.8,0000.0,0003.86,0025.85,0001.64
2021-11-30 15:02:00,,0833.1,4.99,0.00,25.1,24.4,00.0,34.2,26.9,12.8,0000.0,0003.87,0025.83,0001.65
2021-11-30 15:03:00,,0833.1,5.01,0.00,25.1,24.5,00.0,34.2,26.9,12.8,0000.0,0003.90,0027.73,0001.66
2021-11-30 15:04:00,,0833.1,5.00,0.00,25.1,24.5,00.0,34.2,26.9,12.7,0000.0,0003.92,0029.69,0001.67
2021-11-30 15:05:00,,0833.1,5.00,0.00,25.1,24.5,00.0,34.2,26.9,12.7,0000.0,0003.90,0029.64,0001.68
2021-11-30 15:06:00,,0833.1,5.00,0.00,25.2,24.5,00.0,34.2,27.0,12.8,0000.0,0003.96,0029.18,0001.69
2021-11-30 15:07:00,,0833.2,5.00,0.00,25.2,24.5,00.0,34.2,26.9,12.7,0000.0,0003.93,0028.37,0001.68
2021-11-30 15:08:00,,0833.1,5.00,0.00,25.2,24.6,00.0,34.2,27.0,12.8,0000.0,0003.94,0028.76,0001.69
2021-11-30 15:09:00,,0833.1,5.01,0.00,25.2,24.6,00.0,34.2,27.0,12.8,0000.0,0003.93,0027.55,0001.68
2021-11-30 15:10:00,,0833.2,5.01,0.00,25.2,24.6,00.0,34.2,27.0,12.8,0000.0,0003.96,0028.81,0001.69
2021-11-30 15:11:00,,0833.1,5.00,0.00,25.2,24.6,00.0,34.2,27.0,12.8,0000.0,0004.04,0030.29,0001.71
2021-11-30 15:12:00,,0833.2,5.00,0.00,25.2,24.6,00.0,34.2,27.1,12.8,0000.0,0004.11,0029.16,0001.73
2021-11-30 15:13:00,,0833.1,4.99,0.00,25.2,24.7,00.0,34.2,27.1,12.8,0000.0,0004.14,0029.46,0001.74
2021-11-30 15:14:00,,0833.1,5.02,0.00,25.3,24.7,00.0,34.2,27.1,12.8,0000.0,0004.13,0028.01,0001.73
2021-11-30 15:15:00,,0833.2,4.99,0.00,25.3,24.7,00.0,34.2,27.1,12.9,0000.0,0004.08,0025.82,0001.73
2021-11-30 15:16:00,,0833.2,5.00,0.00,25.3,24.7,00.0,34.2,27.1,12.8,0000.0,0004.10,0026.54,0001.74
2021-11-30 15:17:00,,0833.1,5.00,0.00,25.3,24.7,00.0,34.3,27.2,12.7,0000.0,0004.09,0026.40,0001.74
2021-11-30 15:18:00,,0833.1,5.01,0.00,25.4,24.8,00.0,34.3,27.2,12.7,0000.0,0004.15,0026.13,0001.74
2021-11-30 15:19:00,,0833.1,5.00,0.00,25.4,24.8,00.0,34.3,27.2,12.7,0000.0,0004.17,0024.51,0001.75
2021-11-30 15:20:00,,0833.2,4.99,0.00,25.4,24.8,00.0,34.3,27.2,12.7,0000.0,0004.19,0023.98,0001.77
2021-11-30 15:21:00,,0833.1,5.01,0.00,25.4,24.8,00.0,34.3,27.3,12.7,0000.0,0004.21,0023.95,0001.79
2021-11-30 15:22:00,,0833.1,5.00,0.00,25.4,24.8,00.0,34.3,27.3,12.7,0000.0,0004.18,0022.95,0001.79
2021-11-30 15:23:00,,0833.2,4.99,0.00,25.4,24.9,00.0,34.3,27.3,12.7,0000.0,0004.18,0022.75,0001.81
2021-11-30 15:24:00,,0833.2,5.00,0.00,25.4,24.9,00.0,34.4,27.3,12.7,0000.0,0004.15,0022.79,0001.82
2021-11-30 15:25:00,,0833.1,5.01,0.00,25.4,24.9,00.0,34.4,27.3,12.7,0000.0,0004.17,0023.51,0001.85
2021-11-30 15:26:00,,0833.2,4.99,0.00,25.5,24.9,00.0,34.4,27.3,12.7,0000.0,0004.22,0023.73,0001.89
2021-11-30 15:27:00,,0833.2,5.00,0.00,25.5,24.9,00.0,34.4,27.3,12.7,0000.0,0004.25,0023.28,0001.93
2021-11-30 15:28:00,,0833.1,5.00,0.00,25.5,24.9,00.0,34.4,27.3,12.7,0000.0,0004.31,0022.35,0001.98
2021-11-30 15:29:00,,0833.2,5.00,0.00,25.5,24.9,00.0,34.4,27.3,12.7,0000.0,0004.31,0021.51,0002.04
2021-11-30 15:30:00,,0833.1,5.00,0.00,25.4,24.8,00.0,34.4,27.2,12.8,0000.0,0004.36,0021.14,0002.11
2021-11-30 15:31:00,,0833.1,5.00,0.00,25.4,24.8,00.0,34.4,27.2,12.8,0000.0,0004.40,0022.65,0002.17
2021-11-30 15:32:00,,0833.1,5.00,0.00,25.4,24.7,00.0,34.4,27.2,12.9,0000.0,0004.52,0022.80,0002.22
2021-11-30 15:33:00,,0833.1,4.99,0.00,25.4,24.7,00.0,34.4,27.2,12.9,0000.0,0004.54,0022.07,0002.27
2021-11-30 15:34:00,,0833.1,5.02,0.00,25.4,24.6,00.0,34.4,27.1,13.0,0000.0,0004.60,0022.18,0002.33
2021-11-30 15:35:00,,0833.1,4.99,0.00,25.4,24.6,00.0,34.4,27.1,13.1,0000.0,0004.66,0022.41,0002.39
2021-11-30 15:36:00,,0833.1,5.01,0.00,25.4,24.6,00.0,34.4,27.1,13.2,0000.0,0004.73,0021.67,0002.46
2021-11-30 15:37:00,,0833.0,4.99,0.00,25.4,24.6,00.0,34.4,27.1,13.2,0000.0,0004.74,0021.56,0002.50
2021-11-30 15:38:00,,0833.0,5.01,0.00,25.4,24.6,00.0,34.4,27.1,13.3,0000.0,0004.77,0021.50,0002.56
2021-11-30 15:39:00,,0833.1,4.99,0.00,25.3,24.7,00.0,34.4,27.1,13.4,0000.0,0004.80,0021.64,0002.60
2021-11-30 15:40:00,,0833.1,5.00,0.00,25.3,24.7,00.0,34.4,27.1,13.4,0000.0,0004.84,0022.94,0002.64
2021-11-30 15:41:00,,0833.1,4.99,0.00,25.3,24.7,00.0,34.4,27.1,13.4,0000.0,0004.84,0023.14,0002.64
2021-11-30 15:42:00,,0833.1,5.01,0.00,25.3,24.6,00.0,34.4,27.1,13.5,0000.0,0004.84,0022.28,0002.65
2021-11-30 15:43:00,,0833.1,4.99,0.00,25.3,24.7,00.0,34.4,27.1,13.6,0000.0,0004.81,0021.84,0002.65
2021-11-30 15:44:00,,0833.1,5.01,0.00,25.3,24.7,00.0,34.4,27.1,13.7,0000.0,0004.77,0021.89,0002.66
2021-11-30 15:45:00,,0833.1,4.99,0.00,25.3,24.6,00.0,34.4,27.0,13.7,0000.0,0004.72,0022.62,0002.66
2021-11-30 15:46:00,,0833.2,5.02,0.00,25.3,24.5,00.0,34.4,27.1,13.8,0000.0,0004.72,0022.51,0002.67
2021-11-30 15:47:00,,0833.1,4.98,0.00,25.3,24.5,00.0,34.3,27.0,13.8,0000.0,0004.73,0022.88,0002.66
2021-11-30 15:48:00,,0833.1,5.00,0.00,25.3,24.5,00.0,34.3,27.0,13.9,0000.0,0004.78,0023.54,0002.66
2021-11-30 15:49:00,,0833.1,5.01,0.00,25.2,24.5,00.0,34.3,27.0,14.0,0000.0,0004.94,0025.19,0002.69
2021-11-30 15:50:00,,0833.0,4.99,0.00,25.2,24.5,00.0,34.3,27.0,14.0,0000.0,0004.98,0027.99,0002.69
2021-11-30 15:51:00,,0833.0,5.00,0.00,25.2,24.6,00.0,34.3,27.0,14.1,0000.0,0004.98,0027.71,0002.69
2021-11-30 15:52:00,,0833.0,5.00,0.00,25.2,24.6,00.0,34.3,27.0,14.2,0000.0,0004.95,0027.72,0002.67
2021-11-30 15:53:00,,0833.0,4.99,0.00,25.2,24.5,00.0,34.3,27.0,14.2,0000.0,0004.87,0026.73,0002.64
2021-11-30 15:54:00,,0833.0,5.01,0.00,25.2,24.5,00.0,34.3,26.9,14.2,0000.0,0004.83,0027.43,0002.62
2021-11-30 15:55:00,,0833.1,4.99,0.00,25.2,24.5,00.0,34.3,26.9,14.2,0000.0,0004.89,0027.66,0002.62
2021-11-30 15:56:00,,0833.1,5.01,0.00,25.2,24.5,00.0,34.3,26.9,14.3,0000.0,0004.97,0027.30,0002.62
2021-11-30 15:57:00,,0833.1,4.98,0.00,25.2,24.5,00.0,34.3,26.9,14.3,0000.0,0004.93,0027.35,0002.57
2021-11-30 15:58:00,,0833.1,5.00,0.00,25.2,24.5,00.0,34.3,26.9,14.4,0000.0,0004.80,0026.33,0002.51
2021-11-30 15:59:00,,0833.2,5.01,0.00,25.2,24.5,00.0,34.3,26.9,14.4,0000.0,0004.63,0024.86,0002.46
